Hourly Data Report for August 14, 2021

CAMPBELL RIVER A
BRITISH COLUMBIA
Current Station Operator: NAVCAN

49°57'07.000" N
125°16'23.000" W
108.80 m
1021270
YBL

Download Data

Hourly Data (August 2021)
Hourly Data Report for August 14, 2021
TIME
LST
Temp Definition
°C
Dew Point Definition
°C
Rel Hum Definition
%
Precip. Amount Definition
mm

Wind Dir Definition
10's deg

Wind Spd Definition
km/h
Visibility Definition
km
Stn Press Definition
kPa
Hmdx Definition


Wind Chill Definition


Weather Definition


00:00 17.2 14.0 81 LegendMM 27 3 LegendMM 100.33     LegendNANA
01:00 15.8 13.7 88 LegendMM 26 3 LegendMM 100.38     LegendNANA
02:00 15.3 12.8 85 LegendMM 27 2 LegendMM 100.38     LegendNANA
03:00 14.9 12.6 86 LegendMM 30 6 LegendMM 100.39     LegendNANA
04:00 13.7 12.1 90 LegendMM 30 8 LegendMM 100.42     LegendNANA
05:00 12.9 11.7 93 LegendMM 23 3 LegendMM 100.45     LegendNANA
06:00 14.0 12.5 91 LegendMM 31 4 LegendMM 100.48     LegendNANA
07:00 19.4 14.6 73 LegendMM 30 1 LegendMM 100.54     LegendNANA
08:00 23.4 12.8 51 LegendMM 35 5 LegendMM 100.55 26   LegendNANA
09:00 25.3 13.1 46 LegendMM 9 8 LegendMM 100.55 28   LegendNANA
10:00 26.5 11.1 38 LegendMM 9 5 LegendMM 100.55 28   LegendNANA
11:00 27.2 11.1 36 LegendMM 8 11 LegendMM 100.55 29   LegendNANA
12:00 26.0 13.0 44 LegendMM 7 10 LegendMM 100.57 29   LegendNANA
13:00 26.7 13.3 43 LegendMM 8 10 LegendMM 100.58 30   LegendNANA
14:00 26.8 14.5 46 LegendMM 7 9 LegendMM 100.53 30   LegendNANA
15:00 27.3 14.0 43 LegendMM 9 10 LegendMM 100.50 31   LegendNANA
16:00 27.0 13.4 42 LegendMM 10 9 LegendMM 100.44 30   LegendNANA
17:00 26.9 13.8 44 LegendMM 10 10 LegendMM 100.39 30   LegendNANA
18:00 25.1 14.8 52 LegendMM 9 7 LegendMM 100.40 29   LegendNANA
19:00 24.3 14.6 54 LegendMM 4 4 LegendMM 100.39 28   LegendNANA
20:00 20.2 15.2 73 LegendMM 31 6 LegendMM 100.44     LegendNANA
21:00 17.1 14.7 85 LegendMM 30 3 LegendMM 100.42     LegendNANA
22:00 16.5 14.6 89 LegendMM 29 3 LegendMM 100.39     LegendNANA
23:00 15.5 14.2 92 LegendMM 30 5 LegendMM 100.41     LegendNANA

Notes on Data Quality.

Legend

  • E = Estimated
  • M = Missing
  • NA = Not Available*
  • [empty] = Indicates an unobserved value
Date modified: